Tracking 18852 objects as of 23-Nov-2017
HD Live streaming from Space Station
objects crossing your sky now

FENGYUN 1C DEB

Track FENGYUN 1C DEB now!
10-day predictions


NORAD ID: 33623
Int'l Code: 1999-025DDG
Perigee: 825.9 km
Apogee: 944.3 km
Inclination: 98.2 °
Period: 102.5 minutes
Semi major axis: 7256 km
RCS: 0.0124 m2 (small)
Launch date: May 10, 1999
Source: People's Republic of China (PRC)
Launch site: Taiyaun Space Center, China (TSC)

Note: This is SATELLITE DEBRIS
aabbcc
Your satellite tracking list
Your tracking list is empty




NASA's NSSDC Master Catalog

Two Line Element Set (TLE):
1 33623U 99025DDG 17319.13033868 +.00001646 +00000-0 +10230-2 0  9990
2 33623 098.1903 286.5101 0081535 160.3425 200.0919 14.04587264196889
Source of the keplerian elements: AFSPC